TimeMST,TemperatureF,Dew PointF,Humidity,Sea Level PressureIn,VisibilityMPH,Wind Direction,Wind SpeedMPH,Gust SpeedMPH,PrecipitationIn,Events,Conditions,WindDirDegrees,DateUTC
12:53 AM,30.0,27.0,88,30.04,10.0,North,-9999.0,-,N/A,,Clear,0,2012-11-19 07:53:00
1:53 AM,25.0,24.1,96,30.06,10.0,South,5.8,-,N/A,,Clear,170,2012-11-19 08:53:00
2:53 AM,23.0,21.0,92,30.09,10.0,South,4.6,-,N/A,,Unknown,190,2012-11-19 09:53:00
3:53 AM,27.0,25.0,92,30.09,10.0,South,6.9,-,N/A,,Clear,180,2012-11-19 10:53:00
4:53 AM,30.2,26.6,86,30.07,10.0,South,3.5,-,N/A,,Clear,180,2012-11-19 11:53:00
5:53 AM,26.1,24.1,92,30.15,10.0,Calm,Calm,-,N/A,,Clear,0,2012-11-19 12:53:00
6:53 AM,27.0,23.0,85,30.14,10.0,Calm,Calm,-,N/A,,Clear,0,2012-11-19 13:53:00
7:53 AM,32.0,24.1,73,30.14,10.0,ESE,5.8,-,N/A,,Clear,120,2012-11-19 14:53:00
8:53 AM,41.0,28.0,60,30.12,10.0,South,9.2,-,N/A,,Clear,170,2012-11-19 15:53:00
9:53 AM,45.0,30.0,56,30.12,10.0,SSE,9.2,-,N/A,,Clear,160,2012-11-19 16:53:00
10:53 AM,51.1,30.9,46,30.11,10.0,SSW,12.7,-,N/A,,Unknown,210,2012-11-19 17:53:00
11:53 AM,55.0,27.0,34,30.08,10.0,SSW,11.5,-,N/A,,Clear,210,2012-11-19 18:53:00
12:53 PM,57.0,24.1,28,30.06,10.0,SSW,6.9,-,N/A,,Clear,210,2012-11-19 19:53:00
1:53 PM,57.0,24.1,28,30.08,10.0,SW,9.2,-,N/A,,Clear,230,2012-11-19 20:53:00
2:53 PM,57.0,26.1,30,30.08,10.0,SW,4.6,-,N/A,,Clear,230,2012-11-19 21:53:00
3:53 PM,51.1,27.0,39,30.09,10.0,South,6.9,-,N/A,,Clear,190,2012-11-19 22:53:00
4:53 PM,39.0,27.0,62,30.10,10.0,South,4.6,-,N/A,,Clear,170,2012-11-19 23:53:00
5:53 PM,39.0,26.1,60,30.13,10.0,Calm,Calm,-,N/A,,Clear,0,2012-11-20 00:53:00
6:53 PM,45.0,28.0,52,30.10,10.0,SSW,15.0,-,N/A,,Clear,210,2012-11-20 01:53:00
7:53 PM,44.1,28.9,55,30.09,10.0,SSW,16.1,-,N/A,,Unknown,210,2012-11-20 02:53:00
8:53 PM,44.1,30.9,60,30.05,10.0,SSW,12.7,-,N/A,,Clear,210,2012-11-20 03:53:00
9:53 PM,44.1,30.9,60,30.02,10.0,SSW,11.5,-,N/A,,Clear,200,2012-11-20 04:53:00
10:53 PM,42.1,30.0,62,29.99,10.0,South,13.8,-,N/A,,Clear,180,2012-11-20 05:53:00
11:53 PM,39.9,30.0,68,29.99,10.0,South,11.5,-,N/A,,Clear,170,2012-11-20 06:53:00